Location: Bogis-Bossey
(46.3500°N, 6.1667°E)
Time: 17:20:15
(UTC+00:00)

SPOT 5 - Pass Details

Date: 17 August 2022
Orbit: 622 x 814 km, 98.2° (Epoch: 01 October)

Event Time Altitude Azimuth Distance (km) Brightness Sun altitude
Exits shadow 20:39:06 33° 139° (SE) 1,244 3.5 -18.0°
Maximum altitude 20:41:14 62° 72° (ENE) 860 3.1 -18.3°
Drops below altitude 10° 20:46:23 10° 353° (N) 2,361 6.3 -18.9°
Sets 20:48:47 0° 350° (N) 3,314 7.2 -19.2°
